Regional Weather Roundup
Issued by NWS

Home | Current Version | Previous Version | Text Only | Print | Product List | Glossary Off
Versions: 1 2 3 4 5 6 7 8 9 10 11 12 13 14 15 16 17 18 19 20 21 22 23 24 25 26 27 28 29 30 31 32 33 34 35 36 37 38 39 40 41 42 43 44 45 46 47 48 49 50

000
ASUS44 KMEG 260310
RWRTN
TENNESSEE HOURLY STATE WEATHER ROUNDUP
NATIONAL WEATHER SERVICE MEMPHIS TN
1000 PM CDT TUE APR 25 2017

TNZ002-004-019-021-049-052-054-088>092-260400-
WEST TENNESSEE

CITY           SKY/WX    TMP DP  RH WIND       PRES   REMARKS
MEMPHIS INTL   CLEAR     71  54  54 S8        29.62R
NWS MEMPHIS      N/A     70 N/A N/A MISG        N/A
JACKSON        CLEAR     69  56  62 S8          N/A
DYERSBURG      CLEAR     70  54  56 S5        29.62R
SOMERVILLE     CLEAR     70  54  56 VRB6      29.63R
UNION CITY     CLEAR     68  55  64 S10       29.61R
BOLIVAR        CLEAR     64  55  72 SE6       29.65R
PARIS          CLEAR     64  54  68 S8        29.64S
HUNTINGDON     CLEAR     66  55  68 S6        29.63S
LEXINGTON      CLEAR     66  55  68 SE5       29.66R
SAVANNAH       CLEAR     61  57  88 S5        29.67R
$$

TNZ008-025-027-028-033-062-065-066-260400-
NORTH MIDDLE TENNESSEE

CITY           SKY/WX    TMP DP  RH WIND       PRES   REMARKS
NASHVILLE      CLEAR     65  56  72 S5        29.70S
PORTLAND       CLEAR     64  55  72 SE7       29.69S
CLARKSVILLE    CLEAR     66  56  70 SE7       29.66S
SMYRNA         CLEAR     62  57  83 SE6       29.72R
COOKEVILLE     CLEAR     55  55 100 CALM      29.73S
GALLATIN       CLEAR     61  57  88 CALM      29.73S
CROSSVILLE     CLEAR     57  54  89 CALM      29.79R
$$

TNZ061-075-076-078-094-096-097-260400-
SOUTH MIDDLE TENNESSEE

CITY           SKY/WX    TMP DP  RH WIND       PRES   REMARKS
FAYETTEVILLE   CLEAR     63  57  82 S7        29.73S
TULLAHOMA      CLEAR     57  55  94 CALM      29.75S
WINCHESTER     CLEAR     61  55  82 CALM      29.75S
MCMINNVILLE    CLEAR     57  57 100 CALM      29.75R
COLUMBIA       CLEAR     63  63 100 CALM      29.69R
SHELBYVILLE    CLEAR     63  57  82 SE6       29.73S
$$

TNZ017-018-042-046-047-260400-
NORTHEAST TENNESSEE

CITY           SKY/WX    TMP DP  RH WIND       PRES   REMARKS
TRI CITIES     CLEAR     56  54  93 CALM      29.79S
ELIZABETHTON   CLEAR     55  54  94 CALM      29.80S
$$

TNZ012-013-036-069-073-074-260400-
CENTRAL EAST TENNESSEE

CITY           SKY/WX    TMP DP  RH WIND       PRES   REMARKS
KNOXVILLE      PTCLDY    62  55  77 CALM      29.76R
OAK RIDGE      CLEAR     62  56  80 CALM      29.78R
DOWNTOWN KNOXV CLEAR     57  57 100 CALM      29.78R
GATLINBURG     CLEAR     55  54  94 CALM      29.78R
MORRISTOWN     CLEAR     59  57  94 CALM      29.78S
JACKSBORO      PTCLDY    59  57  94 CALM      29.80S
$$

TNZ083-085-099-260400-
SOUTHEAST TENNESSEE

CITY           SKY/WX    TMP DP  RH WIND       PRES   REMARKS
CHATTANOOGA    CLEAR     67  58  72 CALM      29.75R
$$

SKY/WX REPORTED AS FAIR MEANS FEW OR NO CLOUDS BELOW
12 THOUSAND FEET.





USA.gov is the U.S. government's official web portal to all federal, state and local government web resources and services.